Regional Weather Roundup
Issued by NWS Green Bay, WI

Home | Current Version | Previous Version | Text Only | Print | Product List | Glossary On
Versions: 1 2 3 4 5 6 7 8 9 10 11 12 13 14 15 16 17 18 19 20 21 22 23 24 25 26 27 28 29 30 31 32 33 34 35 36 37 38 39 40 41 42 43 44 45 46 47 48 49 50
000
ASUS43 KGRB 241511
RWRGRB

NORTH-CENTRAL AND NORTHEAST WISCONSIN REGIONAL WEATHER ROUNDUP
NATIONAL WEATHER SERVICE GREEN BAY WI
1000 AM CDT TUE APR 24 2018

WIZ005-009-010>012-018-019-241600-
NORTH CENTRAL WISCONSIN

CITY           SKY/WX    TMP DP  RH WIND       PRES   REMARKS
IRONWOOD       FAIR      50  31  48 NE9       30.17F
MANITOWISH WTR PTSUNNY   48  31  50 NE8       30.14S
ARBOR VITAE    PTSUNNY   52  33  49 N12       30.13S
EAGLE RIVER    FAIR      51  28  41 N6        30.11S
LAND O LAKES   CLOUDY    48  30  49 N7        30.14S
RHINELANDER    FAIR      57  31  37 N3        30.11F
PHILLIPS       FAIR      53  33  45 N6        30.12F
ANTIGO         PTSUNNY   55  37  50 CALM      30.10S
TOMAHAWK       FAIR      56  30  37 CALM      30.12S
MERRILL        FAIR      58  35  40 CALM      30.11S
$$

WIZ013-073-241600-
NORTHEAST WISCONSIN

CITY           SKY/WX    TMP DP  RH WIND       PRES   REMARKS
IRON MOUNTAIN  FAIR      58  30  34 CALM      30.08F
MARINETTE      FAIR      49  32  52 E5        30.11S
OCONTO         FAIR      56  31  39 CALM      30.09S
$$

WIZ017-030-035>037-045-241600-
CENTRAL WISCONSIN

CITY           SKY/WX    TMP DP  RH WIND       PRES   REMARKS
MEDFORD        FAIR      58  36  43 CALM      30.10F
WAUSAU         FAIR      60  31  33 N6        30.09S
MOSINEE        MOSUNNY   57  34  41 NW6       30.11F
MARSHFIELD     FAIR      62  34  35 N7        30.09F
WISC RAPIDS    FAIR      61  30  31 VRB5      30.11F
STEVENS POINT  FAIR      59  31  35 NE5       30.10F
WAUPACA        FAIR      62  30  30 N3        30.09F
SHAWANO        FAIR      57  30  35 E3        30.09S
CLINTONVILLE   FAIR      53  30  40 CALM      30.09F
WAUTOMA        FAIR      63  31  30 VRB3      30.09F
$$

WIZ038-039-048-051-241600-
FOX VALLEY

CITY           SKY/WX    TMP DP  RH WIND       PRES   REMARKS
NWS GREEN BAY  FAIR      57  31  37 E3        30.09F
APPLETON       MOSUNNY   57  23  26 N6        30.07F
OSHKOSH        FAIR      58  33  39 N6        30.08F
FOND DU LAC    FAIR      56  35  45 N6        30.08F
$$

WIZ022-050-052-241600-
EAST CENTRAL WISCONSIN

CITY           SKY/WX    TMP DP  RH WIND       PRES   REMARKS
EPHRAIM        FAIR      53  29  39 NE3       30.09F
WASHINGTON ISL FAIR      55  27  33 CALM      30.08F
STURGEON BAY   FAIR      56  28  34 CALM      30.10F
MANITOWOC      FAIR      53  33  46 NE7       30.09F
SHEBOYGAN      FAIR      57  36  45 N8        30.07F
$$

LMZ563-521-522-541>543-241600-
LAKESHORE

STATION/POSITION TIME  TEMP    WIND        PRES    VSBY  WAVE
                       AIR SEA DIR/SP/G                  HT/PER
                 (UTC) (F)     (DEG/KT/KT) (MB)    (MI)  (FT/S)
SHEBOYGAN LKSHOR 1500   39      10/  8/  9 1019.1F
KEWAUNEE LKSHORE 1442   46      30/  6/  8 1018.6F
NORTHPORT PIER   1440   50                 1019.3F
SISTER BAY LKSHO 1457   57        CALM       N/A
MENOMINEE LKSHOR 1436   42      70/  4/  5 1019.0F
$$




USA.gov is the U.S. government's official web portal to all federal, state and local government web resources and services.